UAE9JQ OMDB-EIDW

Flight info

Callsign UAE9JQ
Flight time 7h 50m
Altitude 34000
Route RIDAP M557 TUMAK L602 GADSI M860 SEPTU DCT VUSEB M860 NINVA UM860 ODALI UL852 NEGEM DCT MAXOV DCT NARKA DCT DEMOP DCT ROMIS DCT LALUK DCT ZUCKA DCT PIROT DCT RAVLO Y70 OTBED L60 PENIL UL28 LELDO M145 BAGSO BAGSO3R
Aircraft B77W/H-SDE1E2E3FGHIJ2J3J4J5M1RWXY/LB1D1

Departure

Time 2026-04-21 20:08
Airport Dubai International Airport (OMDB)

Arrival

Time 2026-04-22 03:58
Airport Dublin Airport (EIDW)
Time Latitude Longitude Altitude Speed Heading
2026-04-21 19:46 25.24264 55.37521 29 ft 0 kts 211°
2026-04-21 19:57 25.24277 55.37530 32 ft 4 kts 211°
2026-04-21 19:57 25.24300 55.37545 31 ft 4 kts 211°
2026-04-21 19:58 25.24320 55.37559 31 ft 4 kts 208°
2026-04-21 19:58 25.24342 55.37564 31 ft 4 kts 150°
2026-04-21 19:58 25.24360 55.37544 31 ft 4 kts 122°
2026-04-21 19:58 25.24369 55.37530 31 ft 1 kts 122°
2026-04-21 19:59 25.24369 55.37528 31 ft 0 kts 122°
2026-04-21 20:01 25.24363 55.37539 31 ft 5 kts 122°
2026-04-21 20:01 25.24342 55.37577 30 ft 7 kts 122°
2026-04-21 20:01 25.24314 55.37627 28 ft 8 kts 121°
2026-04-21 20:01 25.24292 55.37666 28 ft 1 kts 121°
2026-04-21 20:02 25.24288 55.37674 31 ft 1 kts 121°
2026-04-21 20:02 25.24283 55.37683 28 ft 2 kts 121°
2026-04-21 20:02 25.24270 55.37708 28 ft 6 kts 121°
2026-04-21 20:02 25.24257 55.37754 29 ft 7 kts 76°
2026-04-21 20:03 25.24290 55.37791 33 ft 7 kts 34°
2026-04-21 20:03 25.24327 55.37820 26 ft 2 kts 34°
2026-04-21 20:03 25.24331 55.37822 26 ft 1 kts 34°
2026-04-21 20:03 25.24373 55.37854 27 ft 10 kts 34°
2026-04-21 20:04 25.24434 55.37900 28 ft 10 kts 34°
2026-04-21 20:04 25.24494 55.37945 30 ft 10 kts 34°
2026-04-21 20:04 25.24554 55.37992 28 ft 11 kts 34°
2026-04-21 20:04 25.24590 55.38019 28 ft 3 kts 33°
2026-04-21 20:05 25.24608 55.38031 28 ft 3 kts 32°
2026-04-21 20:05 25.24630 55.38046 28 ft 6 kts 32°
2026-04-21 20:05 25.24680 55.38081 29 ft 9 kts 32°
2026-04-21 20:05 25.24734 55.38115 31 ft 9 kts 17°
2026-04-21 20:06 25.24779 55.38076 32 ft 7 kts 300°
2026-04-21 20:06 25.24792 55.38052 30 ft 0 kts 301°
2026-04-21 20:07 25.24827 55.37989 30 ft 28 kts 301°
2026-04-21 20:07 25.25055 55.37578 32 ft 97 kts 301°
2026-04-21 20:07 25.25520 55.36740 29 ft 157 kts 301°
2026-04-21 20:08 25.26178 55.35566 64 ft 197 kts 302°
2026-04-21 20:08 25.26878 55.34283 566 ft 198 kts 302°
2026-04-21 20:08 25.27609 55.32960 1030 ft 205 kts 303°
2026-04-21 20:08 25.28317 55.31553 1399 ft 214 kts 288°
2026-04-21 20:09 25.28585 55.29938 1837 ft 215 kts 278°
2026-04-21 20:09 25.28808 55.28300 2282 ft 220 kts 279°
2026-04-21 20:09 25.29065 55.26557 2430 ft 239 kts 279°
2026-04-21 20:09 25.29355 55.24657 2574 ft 262 kts 280°
2026-04-21 20:10 25.29678 55.22591 2765 ft 283 kts 280°
2026-04-21 20:10 25.30027 55.20389 2956 ft 306 kts 280°
2026-04-21 20:10 25.30412 55.17989 3141 ft 328 kts 280°
2026-04-21 20:10 25.30827 55.15428 3387 ft 347 kts 280°
2026-04-21 20:11 25.31259 55.12774 3958 ft 353 kts 280°
2026-04-21 20:11 25.31697 55.10086 4632 ft 357 kts 279°
2026-04-21 20:11 25.32139 55.07383 5436 ft 355 kts 279°
2026-04-21 20:11 25.32577 55.04703 6227 ft 354 kts 279°
2026-04-21 20:12 25.33016 55.02014 6917 ft 356 kts 279°
2026-04-21 20:12 25.33455 54.99323 7597 ft 357 kts 278°
2026-04-21 20:12 25.33896 54.96613 8307 ft 358 kts 278°
2026-04-21 20:12 25.34332 54.93931 8961 ft 360 kts 278°
2026-04-21 20:13 25.34786 54.91203 9644 ft 363 kts 279°
2026-04-21 20:13 25.35451 54.88494 10251 ft 366 kts 285°
2026-04-21 20:13 25.36249 54.85807 10897 ft 369 kts 285°
2026-04-21 20:13 25.37042 54.83100 11624 ft 371 kts 285°
2026-04-21 20:14 25.37827 54.80385 12465 ft 371 kts 285°
2026-04-21 20:14 25.38610 54.77658 13253 ft 373 kts 285°
2026-04-21 20:14 25.39398 54.74901 13956 ft 377 kts 285°
2026-04-21 20:14 25.40182 54.72153 14570 ft 381 kts 285°
2026-04-21 20:15 25.40986 54.69353 15011 ft 383 kts 286°
2026-04-21 20:15 25.41802 54.66536 14990 ft 385 kts 286°
2026-04-21 20:15 25.42619 54.63715 14998 ft 384 kts 286°
2026-04-21 20:15 25.43431 54.60907 14997 ft 383 kts 286°
2026-04-21 20:16 25.44253 54.58101 15004 ft 383 kts 286°
2026-04-21 20:16 25.45077 54.55306 15004 ft 383 kts 286°
2026-04-21 20:16 25.45910 54.52479 15347 ft 388 kts 286°
2026-04-21 20:16 25.46746 54.49638 16105 ft 388 kts 286°
2026-04-21 20:17 25.47582 54.46793 16861 ft 390 kts 287°
2026-04-21 20:17 25.48422 54.43929 17553 ft 393 kts 287°
2026-04-21 20:17 25.49271 54.41031 18215 ft 396 kts 287°
2026-04-21 20:17 25.50124 54.38118 18795 ft 399 kts 287°
2026-04-21 20:18 25.50693 54.36173 19207 ft 401 kts 287°
2026-04-21 20:18 25.51846 54.32228 19988 ft 405 kts 286°
2026-04-21 20:18 25.52716 54.29247 20526 ft 409 kts 286°
2026-04-21 20:18 25.53583 54.26275 21063 ft 412 kts 286°
2026-04-21 20:19 25.54469 54.23241 21596 ft 416 kts 287°
2026-04-21 20:19 25.55372 54.20183 22133 ft 419 kts 287°
2026-04-21 20:19 25.56287 54.17099 22628 ft 423 kts 287°
2026-04-21 20:19 25.57209 54.13988 23140 ft 426 kts 287°
2026-04-21 20:20 25.58135 54.10856 23585 ft 429 kts 287°
2026-04-21 20:20 25.59066 54.07698 24005 ft 432 kts 287°
2026-04-21 20:20 25.59992 54.04522 24447 ft 434 kts 286°
2026-04-21 20:20 25.60904 54.01322 24897 ft 436 kts 286°
2026-04-21 20:21 25.61810 53.98112 25330 ft 438 kts 286°
2026-04-21 20:21 25.62722 53.94876 25770 ft 441 kts 286°
2026-04-21 20:21 25.63639 53.91627 26214 ft 443 kts 286°
2026-04-21 20:21 25.64561 53.88367 26621 ft 445 kts 286°
2026-04-21 20:22 25.65490 53.85079 27019 ft 448 kts 286°
2026-04-21 20:22 25.67362 53.78456 27786 ft 453 kts 286°
2026-04-21 20:22 25.68304 53.75117 28162 ft 455 kts 286°
2026-04-21 20:23 25.69239 53.71803 28547 ft 456 kts 286°
2026-04-21 20:23 25.70182 53.68449 28946 ft 457 kts 286°
2026-04-21 20:23 25.71130 53.65073 29269 ft 459 kts 286°
2026-04-21 20:23 25.72082 53.61679 29564 ft 462 kts 286°
2026-04-21 20:24 25.73038 53.58270 29855 ft 464 kts 286°
2026-04-21 20:24 25.73994 53.54858 30177 ft 463 kts 286°
2026-04-21 20:24 25.74947 53.51454 30615 ft 460 kts 286°
2026-04-21 20:24 25.75896 53.48073 31081 ft 456 kts 286°
2026-04-21 20:25 25.76523 53.45854 31364 ft 455 kts 286°
2026-04-21 20:25 25.77789 53.41383 31851 ft 453 kts 286°
2026-04-21 20:25 25.78730 53.38052 32189 ft 451 kts 286°
2026-04-21 20:25 25.79656 53.34773 32540 ft 450 kts 286°
2026-04-21 20:26 25.80587 53.31466 32901 ft 448 kts 286°
2026-04-21 20:26 25.81515 53.28166 33256 ft 446 kts 286°
2026-04-21 20:26 25.82438 53.24884 33571 ft 444 kts 286°
2026-04-21 20:26 25.83046 53.22717 33776 ft 444 kts 286°
2026-04-21 20:27 25.85540 53.15162 33817 ft 446 kts 293°
2026-04-21 20:27 25.88100 53.08970 33823 ft 441 kts 292°
2026-04-21 20:28 25.90634 53.02774 33825 ft 440 kts 292°
2026-04-21 20:28 25.93149 52.96572 33831 ft 439 kts 292°
2026-04-21 20:29 25.95646 52.90398 33831 ft 438 kts 292°
2026-04-21 20:29 25.98140 52.84226 33837 ft 437 kts 292°
2026-04-21 20:30 26.00615 52.78093 33835 ft 437 kts 292°
2026-04-21 20:30 26.03152 52.71941 33852 ft 438 kts 294°
2026-04-21 20:31 26.05929 52.65882 33846 ft 439 kts 295°
2026-04-21 20:31 26.08702 52.59812 33841 ft 440 kts 294°
2026-04-21 20:32 26.11437 52.53727 33845 ft 440 kts 294°
2026-04-21 20:32 26.14189 52.47640 33851 ft 439 kts 295°
2026-04-21 20:33 26.16475 52.42604 33849 ft 438 kts 295°
2026-04-21 20:33 26.19655 52.35574 33857 ft 437 kts 294°
2026-04-21 20:34 26.22385 52.29520 33856 ft 436 kts 294°
2026-04-21 20:34 26.25027 52.23440 33859 ft 435 kts 293°
2026-04-21 20:35 26.27203 52.18378 33866 ft 435 kts 293°
2026-04-21 20:35 26.29826 52.12304 33868 ft 434 kts 293°
2026-04-21 20:36 26.32449 52.06229 33885 ft 435 kts 293°
2026-04-21 20:36 26.35053 52.00136 33878 ft 435 kts 292°
2026-04-21 20:37 26.37621 51.94037 33862 ft 434 kts 290°
2026-04-21 20:37 26.39710 51.87786 33878 ft 432 kts 288°
2026-04-21 20:38 26.41803 51.81506 33870 ft 432 kts 288°
2026-04-21 20:38 26.43926 51.75243 33883 ft 431 kts 288°
2026-04-21 20:39 26.46044 51.68970 33887 ft 431 kts 288°
2026-04-21 20:39 26.48170 51.62707 33885 ft 432 kts 288°
2026-04-21 20:40 26.50265 51.56421 33876 ft 432 kts 288°
2026-04-21 20:40 26.52348 51.50125 33895 ft 432 kts 288°
2026-04-21 20:41 26.54432 51.43829 33896 ft 433 kts 288°
2026-04-21 20:41 26.56509 51.37549 33890 ft 433 kts 288°
2026-04-21 20:42 26.58601 51.31217 33884 ft 434 kts 287°
2026-04-21 20:42 26.60696 51.24875 33883 ft 435 kts 287°
2026-04-21 20:43 26.62794 51.18529 33890 ft 436 kts 287°
2026-04-21 20:43 26.64895 51.12161 33885 ft 436 kts 287°
2026-04-21 20:44 26.66990 51.05797 33886 ft 436 kts 287°
2026-04-21 20:44 26.69081 50.99426 33898 ft 436 kts 287°
2026-04-21 20:45 26.71134 50.93039 33892 ft 437 kts 287°
2026-04-21 20:45 26.73183 50.86633 33871 ft 437 kts 286°
2026-04-21 20:46 26.75237 50.80216 33876 ft 438 kts 286°
2026-04-21 20:46 26.77274 50.73848 33889 ft 438 kts 286°
2026-04-21 20:47 26.79558 50.67518 33872 ft 441 kts 294°
2026-04-21 20:47 26.82732 50.61589 33889 ft 447 kts 300°
2026-04-21 20:48 26.86648 50.56115 33891 ft 452 kts 305°
2026-04-21 20:48 26.90662 50.50677 33899 ft 453 kts 304°
2026-04-21 20:49 26.94847 50.45408 33907 ft 457 kts 308°
2026-04-21 20:49 26.99239 50.40241 33908 ft 458 kts 308°
2026-04-21 20:50 27.03628 50.35024 33911 ft 459 kts 307°
2026-04-21 20:50 27.08004 50.29775 33910 ft 460 kts 307°
2026-04-21 20:51 27.12361 50.24515 33910 ft 460 kts 307°
2026-04-21 20:51 27.16875 50.19386 33914 ft 466 kts 312°
2026-04-21 20:52 27.22093 50.14970 33915 ft 470 kts 317°
2026-04-21 20:52 27.27338 50.10691 33899 ft 467 kts 316°
2026-04-21 20:53 27.32553 50.06370 33912 ft 465 kts 316°
2026-04-21 20:53 27.37739 50.02032 33903 ft 463 kts 315°
2026-04-21 20:54 27.42813 49.97585 33915 ft 461 kts 314°
2026-04-21 20:54 27.47858 49.93114 33915 ft 461 kts 314°
2026-04-21 20:55 27.52873 49.88691 33918 ft 459 kts 314°
2026-04-21 20:55 27.57890 49.84274 33911 ft 456 kts 314°
2026-04-21 20:56 27.62878 49.79879 33911 ft 453 kts 314°
2026-04-21 20:56 27.67811 49.75525 33932 ft 452 kts 314°
2026-04-21 20:57 27.72757 49.71153 33921 ft 451 kts 313°
2026-04-21 20:57 27.77708 49.66773 33920 ft 452 kts 313°
2026-04-21 20:58 27.82619 49.62399 33922 ft 452 kts 313°
2026-04-21 20:58 27.87552 49.57982 33931 ft 453 kts 313°
2026-04-21 20:59 27.92490 49.53560 33927 ft 453 kts 313°
2026-04-21 20:59 27.97426 49.49136 33928 ft 452 kts 313°
2026-04-21 21:00 28.02357 49.44712 33954 ft 451 kts 313°
2026-04-21 21:00 28.07261 49.40270 33949 ft 449 kts 313°
2026-04-21 21:01 28.12094 49.35858 33926 ft 448 kts 313°
2026-04-21 21:01 28.16943 49.31429 33930 ft 446 kts 313°
2026-04-21 21:02 28.21773 49.27017 33937 ft 446 kts 313°
2026-04-21 21:02 28.26601 49.22603 33934 ft 445 kts 313°
2026-04-21 21:03 28.31402 49.18180 33934 ft 444 kts 312°
2026-04-21 21:03 28.36164 49.13778 33958 ft 444 kts 313°
2026-04-21 21:04 28.41043 49.09436 33939 ft 449 kts 317°
2026-04-21 21:04 28.46254 49.05482 33940 ft 450 kts 317°
2026-04-21 21:05 28.51471 49.01522 33940 ft 450 kts 317°
2026-04-21 21:05 28.56645 48.97567 33947 ft 450 kts 317°
2026-04-21 21:06 28.61835 48.93585 33938 ft 450 kts 317°
2026-04-21 21:06 28.67028 48.89596 33937 ft 449 kts 317°
2026-04-21 21:07 28.72173 48.85639 33951 ft 449 kts 317°
2026-04-21 21:07 28.77384 48.81627 33930 ft 449 kts 317°
2026-04-21 21:08 28.82535 48.77661 33934 ft 448 kts 317°
2026-04-21 21:08 28.87708 48.73695 33973 ft 448 kts 317°
2026-04-21 21:09 28.92883 48.69724 33955 ft 448 kts 317°
2026-04-21 21:09 28.98058 48.65745 33947 ft 448 kts 317°
2026-04-21 21:10 29.03226 48.61766 33943 ft 448 kts 317°
2026-04-21 21:10 29.08387 48.57786 33942 ft 447 kts 317°
2026-04-21 21:11 29.13551 48.53800 33943 ft 447 kts 317°
2026-04-21 21:11 29.18713 48.49810 33945 ft 447 kts 317°
2026-04-21 21:12 29.23871 48.45817 33948 ft 448 kts 317°
2026-04-21 21:12 29.29036 48.41815 33952 ft 448 kts 317°
2026-04-21 21:13 29.34161 48.37839 33946 ft 447 kts 317°
2026-04-21 21:13 29.39311 48.33838 33966 ft 447 kts 316°
2026-04-21 21:14 29.44501 48.29873 33940 ft 450 kts 320°
2026-04-21 21:14 29.49960 48.26274 33951 ft 452 kts 321°
2026-04-21 21:15 29.55393 48.22742 33983 ft 451 kts 321°
2026-04-21 21:15 29.60880 48.19149 33958 ft 451 kts 320°
2026-04-21 21:16 29.66285 48.15588 33951 ft 450 kts 320°
2026-04-21 21:16 29.71721 48.12000 33950 ft 450 kts 320°
2026-04-21 21:17 29.77146 48.08415 33947 ft 449 kts 320°
2026-04-21 21:17 29.82565 48.04831 33945 ft 448 kts 320°
2026-04-21 21:18 29.87971 48.01249 33936 ft 448 kts 320°
2026-04-21 21:18 29.93373 47.97666 33957 ft 448 kts 320°
2026-04-21 21:19 29.96078 47.95870 33952 ft 448 kts 320°
2026-04-21 21:20 30.05172 47.87874 33972 ft 429 kts 305°
2026-04-21 21:20 30.07154 47.85308 33959 ft 427 kts 303°
2026-04-21 21:20 30.11028 47.80099 33955 ft 429 kts 302°
2026-04-21 21:21 30.14925 47.74858 33951 ft 430 kts 303°
2026-04-21 21:21 30.18840 47.69615 33948 ft 431 kts 303°
2026-04-21 21:22 30.22738 47.64400 33953 ft 431 kts 303°
2026-04-21 21:22 30.26660 47.59147 33962 ft 431 kts 302°
2026-04-21 21:23 30.30577 47.53894 33945 ft 430 kts 302°
2026-04-21 21:23 30.34475 47.48660 33943 ft 429 kts 302°
2026-04-21 21:24 30.38366 47.43425 33945 ft 428 kts 302°
2026-04-21 21:24 30.42238 47.38210 33940 ft 427 kts 302°
2026-04-21 21:25 30.46108 47.32989 33958 ft 426 kts 302°
2026-04-21 21:25 30.49977 47.27764 33947 ft 427 kts 302°
2026-04-21 21:26 30.53839 47.22541 33947 ft 427 kts 302°
2026-04-21 21:26 30.57962 47.17506 33932 ft 435 kts 309°
2026-04-21 21:27 30.62684 47.13088 33940 ft 439 kts 312°
2026-04-21 21:27 30.67463 47.08662 33943 ft 439 kts 312°
2026-04-21 21:28 30.72228 47.04220 33942 ft 439 kts 311°
2026-04-21 21:29 30.79366 46.97538 33952 ft 439 kts 311°
2026-04-21 21:29 30.84118 46.93082 33941 ft 438 kts 311°
2026-04-21 21:30 30.88860 46.88629 33936 ft 437 kts 311°
2026-04-21 21:30 30.93596 46.84177 33945 ft 437 kts 311°
2026-04-21 21:31 30.98326 46.79724 33938 ft 437 kts 311°
2026-04-21 21:31 31.03049 46.75271 33936 ft 436 kts 311°
2026-04-21 21:32 31.07738 46.70844 33938 ft 437 kts 311°
2026-04-21 21:32 31.12463 46.66378 33937 ft 437 kts 311°
2026-04-21 21:33 31.17190 46.61904 33939 ft 437 kts 311°
2026-04-21 21:33 31.21929 46.57413 33945 ft 439 kts 311°
2026-04-21 21:34 31.26677 46.52907 33941 ft 440 kts 311°
2026-04-21 21:34 31.31433 46.48387 33942 ft 441 kts 311°
2026-04-21 21:35 31.36197 46.43854 33962 ft 442 kts 311°
2026-04-21 21:35 31.40949 46.39326 33945 ft 443 kts 311°
2026-04-21 21:36 31.45733 46.34763 33948 ft 443 kts 311°
2026-04-21 21:36 31.50509 46.30201 33954 ft 443 kts 311°
2026-04-21 21:37 31.55285 46.25632 33954 ft 443 kts 311°
2026-04-21 21:37 31.60054 46.21063 33950 ft 442 kts 311°
2026-04-21 21:38 31.64812 46.16499 33952 ft 442 kts 311°
2026-04-21 21:38 31.69576 46.11922 33959 ft 441 kts 311°
2026-04-21 21:39 31.74320 46.07358 33958 ft 441 kts 311°
2026-04-21 21:39 31.78998 46.02783 33970 ft 440 kts 310°
2026-04-21 21:40 31.83667 45.98131 33970 ft 440 kts 310°
2026-04-21 21:40 31.88333 45.93477 33963 ft 439 kts 310°
2026-04-21 21:41 31.93012 45.88816 33974 ft 440 kts 310°
2026-04-21 21:41 31.97691 45.84152 33954 ft 441 kts 310°
2026-04-21 21:42 32.02376 45.79476 33973 ft 441 kts 310°
2026-04-21 21:42 32.07060 45.74796 33971 ft 441 kts 310°
2026-04-21 21:43 32.11721 45.70131 33953 ft 442 kts 310°
2026-04-21 21:43 32.16413 45.65429 33963 ft 442 kts 310°
2026-04-21 21:44 32.21105 45.60721 33957 ft 443 kts 310°
2026-04-21 21:44 32.25801 45.56001 33961 ft 443 kts 310°
2026-04-21 21:45 32.30495 45.51278 33963 ft 443 kts 310°
2026-04-21 21:45 32.35164 45.46571 33977 ft 444 kts 310°
2026-04-21 21:46 32.39867 45.41824 33967 ft 444 kts 310°
2026-04-21 21:46 32.44569 45.37071 33961 ft 444 kts 310°
2026-04-21 21:47 32.49269 45.32314 33979 ft 445 kts 310°
2026-04-21 21:47 32.53942 45.27581 33966 ft 445 kts 311°
2026-04-21 21:48 32.59013 45.23232 33999 ft 453 kts 317°
2026-04-21 21:48 32.64280 45.19113 33961 ft 453 kts 317°
2026-04-21 21:49 32.69533 45.14979 33965 ft 452 kts 317°
2026-04-21 21:49 32.74766 45.10830 33973 ft 452 kts 317°
2026-04-21 21:50 32.80001 45.06667 33972 ft 453 kts 317°
2026-04-21 21:50 32.85238 45.02497 33973 ft 453 kts 317°
2026-04-21 21:51 32.90448 44.98342 33966 ft 454 kts 317°
2026-04-21 21:51 32.95698 44.94152 33972 ft 454 kts 317°
2026-04-21 21:52 33.00947 44.89956 33959 ft 454 kts 317°
2026-04-21 21:52 33.06201 44.85749 33957 ft 454 kts 317°
2026-04-21 21:53 33.11444 44.81544 33979 ft 454 kts 317°
2026-04-21 21:53 33.16692 44.77330 33980 ft 455 kts 317°
2026-04-21 21:54 33.22337 44.73686 33974 ft 468 kts 328°
2026-04-21 21:54 33.27480 44.71493 33968 ft 479 kts 336°
2026-04-21 21:55 33.35032 44.69276 33965 ft 481 kts 337°
2026-04-21 21:55 33.40448 44.67741 33966 ft 481 kts 337°
2026-04-21 21:56 33.46953 44.65860 33967 ft 480 kts 337°
2026-04-21 21:56 33.53437 44.63951 33965 ft 480 kts 336°
2026-04-21 21:57 33.59932 44.62026 34000 ft 480 kts 336°
2026-04-21 21:57 33.66419 44.60100 33972 ft 480 kts 337°
2026-04-21 21:58 33.72887 44.58180 33967 ft 478 kts 336°
2026-04-21 21:58 33.79336 44.56262 33963 ft 477 kts 336°
2026-04-21 21:59 33.85768 44.54345 33965 ft 476 kts 337°
2026-04-21 21:59 33.92155 44.52439 33965 ft 476 kts 337°
2026-04-21 22:00 33.98598 44.50513 33965 ft 476 kts 337°
2026-04-21 22:00 34.05039 44.48585 33987 ft 477 kts 337°
2026-04-21 22:01 34.11483 44.46652 33978 ft 478 kts 337°
2026-04-21 22:01 34.17951 44.44710 33966 ft 479 kts 337°
2026-04-21 22:02 34.24426 44.42764 33965 ft 480 kts 337°
2026-04-21 22:02 34.30880 44.40821 33969 ft 480 kts 339°
2026-04-21 22:03 34.37369 44.38864 33966 ft 480 kts 339°
2026-04-21 22:03 34.43864 44.36902 33967 ft 480 kts 339°
2026-04-21 22:04 34.50352 44.34938 33977 ft 480 kts 339°
2026-04-21 22:04 34.56835 44.32973 33971 ft 480 kts 339°
2026-04-21 22:05 34.63309 44.31008 33970 ft 480 kts 339°
2026-04-21 22:05 34.69750 44.29050 33992 ft 480 kts 340°
2026-04-21 22:06 34.76226 44.27077 33973 ft 479 kts 340°
2026-04-21 22:06 34.82699 44.25102 33971 ft 479 kts 340°
2026-04-21 22:07 34.89174 44.23124 33975 ft 478 kts 340°
2026-04-21 22:07 34.95580 44.21163 33980 ft 477 kts 340°
2026-04-21 22:08 35.02025 44.19188 33968 ft 476 kts 340°
2026-04-21 22:08 35.08446 44.17217 33971 ft 475 kts 340°
2026-04-21 22:09 35.14841 44.15249 33977 ft 474 kts 340°
2026-04-21 22:09 35.21230 44.13281 33976 ft 473 kts 340°
2026-04-21 22:10 35.27612 44.11312 33981 ft 472 kts 340°
2026-04-21 22:10 35.33984 44.09342 33996 ft 472 kts 341°
2026-04-21 22:11 35.40319 44.07381 33982 ft 473 kts 341°
2026-04-21 22:11 35.46699 44.05403 33988 ft 473 kts 341°
2026-04-21 22:12 35.53080 44.03422 33989 ft 473 kts 341°
2026-04-21 22:12 35.59469 44.01434 33997 ft 473 kts 341°
2026-04-21 22:13 35.65849 43.99446 33990 ft 473 kts 341°
2026-04-21 22:13 35.72194 43.97466 33990 ft 473 kts 341°
2026-04-21 22:14 35.78574 43.95471 33997 ft 473 kts 341°
2026-04-21 22:14 35.84953 43.93474 33994 ft 473 kts 341°
2026-04-21 22:15 35.91322 43.91477 33989 ft 472 kts 341°
2026-04-21 22:15 35.97676 43.89480 33997 ft 471 kts 341°
2026-04-21 22:16 36.04030 43.87480 33989 ft 470 kts 341°
2026-04-21 22:16 36.10366 43.85483 33975 ft 470 kts 341°
2026-04-21 22:17 36.16710 43.83480 33969 ft 470 kts 341°
2026-04-21 22:17 36.23002 43.81489 33973 ft 470 kts 341°
2026-04-21 22:18 36.29276 43.79274 33963 ft 466 kts 334°
2026-04-21 22:18 36.35232 43.76180 33997 ft 464 kts 333°
2026-04-21 22:19 36.41174 43.73040 34001 ft 465 kts 333°
2026-04-21 22:19 36.47148 43.69920 34012 ft 466 kts 333°
2026-04-21 22:20 36.53137 43.66806 34019 ft 467 kts 334°
2026-04-21 22:20 36.59129 43.63686 34018 ft 467 kts 333°
2026-04-21 22:21 36.65134 43.60553 34038 ft 467 kts 333°
2026-04-21 22:21 36.71138 43.57414 34022 ft 468 kts 333°
2026-04-21 22:22 36.77133 43.54244 34026 ft 468 kts 333°
2026-04-21 22:22 36.83030 43.50952 34048 ft 467 kts 332°
2026-04-21 22:23 36.88964 43.47606 34045 ft 467 kts 332°
2026-04-21 22:23 36.94885 43.44283 34052 ft 467 kts 332°
2026-04-21 22:24 37.00809 43.40965 34055 ft 466 kts 332°
2026-04-21 22:24 37.06739 43.37639 34057 ft 466 kts 332°
2026-04-21 22:25 37.12618 43.34335 34051 ft 465 kts 332°
2026-04-21 22:25 37.18523 43.31010 34068 ft 465 kts 332°
2026-04-21 22:26 37.24423 43.27681 34063 ft 465 kts 332°
2026-04-21 22:26 37.30315 43.24344 34053 ft 463 kts 330°
2026-04-21 22:26 37.33049 43.22265 34050 ft 457 kts 319°
2026-04-21 22:27 37.35373 43.19564 34061 ft 453 kts 310°
2026-04-21 22:27 37.38838 43.13033 34060 ft 448 kts 296°
2026-04-21 22:28 37.41700 43.06092 34057 ft 451 kts 296°
2026-04-21 22:28 37.44631 42.99082 34051 ft 453 kts 296°
2026-04-21 22:29 37.47604 42.92080 34043 ft 454 kts 297°
2026-04-21 22:29 37.50605 42.85080 34048 ft 454 kts 297°
2026-04-21 22:30 37.53563 42.78044 34036 ft 454 kts 297°
2026-04-21 22:30 37.56512 42.70992 34040 ft 454 kts 297°
2026-04-21 22:31 37.59469 42.63958 34043 ft 453 kts 297°
2026-04-21 22:31 37.62445 42.56952 34035 ft 453 kts 297°
2026-04-21 22:32 37.65398 42.49981 34042 ft 452 kts 297°
2026-04-21 22:32 37.68351 42.42960 34037 ft 452 kts 297°
2026-04-21 22:33 37.71291 42.35947 34036 ft 452 kts 297°
2026-04-21 22:33 37.74225 42.28931 34030 ft 451 kts 297°
2026-04-21 22:34 37.77155 42.21911 34033 ft 451 kts 296°
2026-04-21 22:34 37.80080 42.14879 34028 ft 452 kts 296°
2026-04-21 22:35 37.82981 42.07890 34036 ft 451 kts 296°
2026-04-21 22:35 37.85893 42.00847 34030 ft 451 kts 296°
2026-04-21 22:36 37.90319 41.90309 34038 ft 453 kts 300°
2026-04-21 22:36 37.94048 41.83853 34020 ft 456 kts 309°
2026-04-21 22:37 37.98281 41.77881 34034 ft 455 kts 310°
2026-04-21 22:37 38.02510 41.71883 34032 ft 456 kts 310°
2026-04-21 22:38 38.06716 41.65847 34023 ft 456 kts 309°
2026-04-21 22:38 38.10882 41.59831 34028 ft 456 kts 310°
2026-04-21 22:39 38.15078 41.53757 34014 ft 457 kts 310°
2026-04-21 22:39 38.19266 41.47683 34016 ft 457 kts 310°
2026-04-21 22:40 38.23463 41.41588 34022 ft 457 kts 310°
2026-04-21 22:40 38.27642 41.35506 34011 ft 457 kts 310°
2026-04-21 22:41 38.31792 41.29452 34000 ft 456 kts 310°
2026-04-21 22:41 38.35960 41.23358 34025 ft 455 kts 310°
2026-04-21 22:42 38.40116 41.17264 34010 ft 455 kts 310°
2026-04-21 22:42 38.44267 41.11164 34012 ft 455 kts 310°
2026-04-21 22:43 38.48407 41.05044 34016 ft 454 kts 309°
2026-04-21 22:43 38.51783 40.99899 34005 ft 453 kts 309°
2026-04-21 22:44 38.56465 40.92712 34005 ft 451 kts 309°
2026-04-21 22:44 38.59824 40.87553 34013 ft 451 kts 309°
2026-04-21 22:45 38.63842 40.81404 34017 ft 450 kts 309°
2026-04-21 22:45 38.67892 40.75308 34022 ft 448 kts 309°
2026-04-21 22:46 38.71919 40.69256 34023 ft 449 kts 309°
2026-04-21 22:46 38.75967 40.63132 34024 ft 451 kts 309°
2026-04-21 22:47 38.80019 40.56975 34021 ft 452 kts 309°
2026-04-21 22:47 38.84067 40.50809 34019 ft 452 kts 309°
2026-04-21 22:48 38.88118 40.44630 34024 ft 452 kts 309°
2026-04-21 22:48 38.92165 40.38444 34028 ft 452 kts 309°
2026-04-21 22:49 38.96209 40.32248 34026 ft 452 kts 309°
2026-04-21 22:49 39.00211 40.26105 34019 ft 450 kts 309°
2026-04-21 22:50 39.04218 40.19942 34024 ft 448 kts 309°
2026-04-21 22:50 39.08213 40.13782 34025 ft 447 kts 309°
2026-04-21 22:51 39.12197 40.07624 34029 ft 447 kts 309°
2026-04-21 22:51 39.16167 40.01468 34027 ft 447 kts 309°
2026-04-21 22:52 39.20118 39.95355 34023 ft 446 kts 309°
2026-04-21 22:52 39.24100 39.89211 34034 ft 446 kts 309°
2026-04-21 22:53 39.28069 39.83061 34029 ft 446 kts 309°
2026-04-21 22:53 39.32029 39.76895 34025 ft 445 kts 309°
2026-04-21 22:54 39.35979 39.70730 34020 ft 444 kts 308°
2026-04-21 22:54 39.39891 39.64608 34030 ft 444 kts 308°
2026-04-21 22:55 39.43825 39.58436 34030 ft 444 kts 308°
2026-04-21 22:55 39.47757 39.52248 34036 ft 445 kts 308°
2026-04-21 22:56 39.51691 39.46064 34040 ft 445 kts 308°
2026-04-21 22:56 39.55594 39.39829 34038 ft 445 kts 308°
2026-04-21 22:57 39.59469 39.33571 34039 ft 445 kts 307°
2026-04-21 22:57 39.63349 39.27292 34027 ft 446 kts 307°
2026-04-21 22:58 39.67197 39.21048 34022 ft 446 kts 307°
2026-04-21 22:58 39.71067 39.14763 34033 ft 445 kts 308°
2026-04-21 22:59 39.74959 39.08500 34039 ft 446 kts 308°
2026-04-21 22:59 39.78907 39.02255 34035 ft 447 kts 308°
2026-04-21 23:00 39.82848 38.95993 34037 ft 447 kts 308°
2026-04-21 23:00 39.86754 38.89752 34009 ft 448 kts 308°
2026-04-21 23:01 39.90682 38.83452 34011 ft 449 kts 308°
2026-04-21 23:01 39.94619 38.77122 34011 ft 449 kts 308°
2026-04-21 23:02 39.98554 38.70783 34014 ft 450 kts 308°
2026-04-21 23:02 40.02491 38.64430 34018 ft 450 kts 308°
2026-04-21 23:03 40.06426 38.58065 34019 ft 450 kts 308°
2026-04-21 23:03 40.10357 38.51693 34025 ft 450 kts 308°
2026-04-21 23:04 40.14279 38.45321 34016 ft 450 kts 308°
2026-04-21 23:04 40.18197 38.38941 34005 ft 449 kts 308°
2026-04-21 23:05 40.22075 38.32609 34012 ft 448 kts 308°
2026-04-21 23:05 40.25957 38.26249 34009 ft 447 kts 308°
2026-04-21 23:06 40.29835 38.19902 34004 ft 444 kts 307°
2026-04-21 23:06 40.33190 38.13144 34004 ft 443 kts 298°
2026-04-21 23:07 40.35675 38.05730 34009 ft 446 kts 291°
2026-04-21 23:07 40.37929 37.98145 34003 ft 447 kts 291°
2026-04-21 23:08 40.40190 37.90549 33992 ft 447 kts 291°
2026-04-21 23:08 40.42454 37.82957 34004 ft 446 kts 291°
2026-04-21 23:09 40.44706 37.75379 33999 ft 444 kts 291°
2026-04-21 23:09 40.46944 37.67859 33996 ft 441 kts 291°
2026-04-21 23:10 40.49177 37.60377 34001 ft 439 kts 291°
2026-04-21 23:10 40.51390 37.52954 34010 ft 438 kts 291°
2026-04-21 23:11 40.53600 37.45482 34005 ft 438 kts 291°
2026-04-21 23:11 40.55803 37.37997 34007 ft 439 kts 291°
2026-04-21 23:12 40.58004 37.30492 34006 ft 440 kts 291°
2026-04-21 23:12 40.60205 37.22964 34011 ft 441 kts 291°
2026-04-21 23:13 40.62403 37.15429 34009 ft 441 kts 290°
2026-04-21 23:13 40.64585 37.07926 33991 ft 441 kts 290°
2026-04-21 23:14 40.66772 37.00383 33986 ft 441 kts 290°
2026-04-21 23:14 40.68955 36.92828 33992 ft 440 kts 290°
2026-04-21 23:15 40.71123 36.85299 33987 ft 439 kts 290°
2026-04-21 23:15 40.73278 36.77777 33976 ft 438 kts 290°
2026-04-21 23:16 40.75428 36.70261 33982 ft 437 kts 290°
2026-04-21 23:16 40.77585 36.62751 33985 ft 437 kts 290°
2026-04-21 23:17 40.79751 36.55253 33988 ft 437 kts 290°
2026-04-21 23:17 40.81907 36.47738 33979 ft 438 kts 290°
2026-04-21 23:18 40.84050 36.40214 33972 ft 438 kts 290°
2026-04-21 23:18 40.86175 36.32725 33973 ft 437 kts 290°
2026-04-21 23:19 40.88304 36.25198 33976 ft 437 kts 290°
2026-04-21 23:19 40.90428 36.17657 33970 ft 437 kts 290°
2026-04-21 23:20 40.92546 36.10115 33978 ft 437 kts 290°
2026-04-21 23:20 40.94644 36.02616 33961 ft 437 kts 289°
2026-04-21 23:21 40.96709 35.95059 33964 ft 437 kts 289°
2026-04-21 23:21 40.98774 35.87498 33959 ft 437 kts 289°
2026-04-21 23:22 41.00869 35.79948 33962 ft 436 kts 289°
2026-04-21 23:22 41.02978 35.72415 33954 ft 435 kts 289°
2026-04-21 23:23 41.05069 35.64884 33954 ft 435 kts 289°
2026-04-21 23:23 41.07144 35.57358 33942 ft 434 kts 289°
2026-04-21 23:24 41.09198 35.49879 33944 ft 434 kts 289°
2026-04-21 23:24 41.11258 35.42350 33939 ft 433 kts 289°
2026-04-21 23:25 41.13309 35.34835 33943 ft 433 kts 289°
2026-04-21 23:25 41.15340 35.27373 33943 ft 432 kts 289°
2026-04-21 23:26 41.17377 35.19859 33940 ft 432 kts 289°
2026-04-21 23:26 41.19409 35.12341 33933 ft 432 kts 289°
2026-04-21 23:27 41.21438 35.04809 33940 ft 432 kts 289°
2026-04-21 23:27 41.23443 34.97325 33941 ft 433 kts 289°
2026-04-21 23:28 41.25461 34.89778 33941 ft 434 kts 288°
2026-04-21 23:28 41.27491 34.82208 33946 ft 434 kts 289°
2026-04-21 23:29 41.29521 34.74649 33937 ft 434 kts 288°
2026-04-21 23:29 41.31539 34.67076 33950 ft 434 kts 288°
2026-04-21 23:30 41.33545 34.59496 33945 ft 434 kts 288°
2026-04-21 23:30 41.35547 34.51903 33957 ft 434 kts 288°
2026-04-21 23:31 41.37527 34.44354 33959 ft 435 kts 288°
2026-04-21 23:31 41.39518 34.36753 33956 ft 435 kts 288°
2026-04-21 23:32 41.41186 34.30370 33953 ft 435 kts 288°
2026-04-21 23:32 41.43150 34.22737 33952 ft 436 kts 288°
2026-04-21 23:33 41.45100 34.15134 33956 ft 436 kts 288°
2026-04-21 23:33 41.47075 34.07486 33966 ft 436 kts 288°
2026-04-21 23:34 41.49054 33.99845 33971 ft 435 kts 288°
2026-04-21 23:34 41.51012 33.92229 33971 ft 433 kts 288°
2026-04-21 23:35 41.52950 33.84636 33986 ft 431 kts 288°
2026-04-21 23:35 41.54865 33.77108 34053 ft 433 kts 288°
2026-04-21 23:36 41.55830 33.73296 34287 ft 432 kts 288°
2026-04-21 23:36 41.56790 33.69500 34583 ft 431 kts 288°
2026-04-21 23:36 41.57748 33.65704 34850 ft 430 kts 288°
2026-04-21 23:36 41.58705 33.61916 35079 ft 431 kts 288°
2026-04-21 23:37 41.59667 33.58116 35272 ft 432 kts 287°
2026-04-21 23:37 41.60612 33.54304 35491 ft 432 kts 287°
2026-04-21 23:37 41.61546 33.50487 35718 ft 432 kts 287°
2026-04-21 23:37 41.62508 33.46680 35893 ft 433 kts 288°
2026-04-21 23:38 41.64462 33.39019 35997 ft 435 kts 288°
2026-04-21 23:38 41.66378 33.31430 36001 ft 433 kts 287°
2026-04-21 23:39 41.68281 33.23818 36015 ft 430 kts 287°
2026-04-21 23:39 41.70168 33.16224 36010 ft 429 kts 287°
2026-04-21 23:40 41.72048 33.08628 36022 ft 429 kts 287°
2026-04-21 23:40 41.73928 33.01045 36026 ft 429 kts 287°
2026-04-21 23:41 41.75774 32.93493 36024 ft 430 kts 287°
2026-04-21 23:41 41.77616 32.85864 36025 ft 430 kts 287°
2026-04-21 23:42 41.79460 32.78220 36040 ft 431 kts 287°
2026-04-21 23:42 41.81324 32.70586 36021 ft 431 kts 287°
2026-04-21 23:43 41.83209 32.62965 36024 ft 431 kts 287°
2026-04-21 23:43 41.85072 32.55332 36025 ft 430 kts 287°
2026-04-21 23:44 41.86930 32.47703 36043 ft 430 kts 287°
2026-04-21 23:44 41.88747 32.40050 36033 ft 430 kts 286°
2026-04-21 23:45 41.91456 32.28580 36031 ft 429 kts 287°
2026-04-21 23:46 41.93269 32.21003 36033 ft 429 kts 287°
2026-04-21 23:46 41.95094 32.13364 36032 ft 429 kts 286°
2026-04-21 23:47 41.96903 32.05724 36031 ft 429 kts 286°
2026-04-21 23:47 41.98699 31.98067 36038 ft 429 kts 286°
2026-04-21 23:48 42.00496 31.90408 36036 ft 429 kts 286°
2026-04-21 23:48 42.02296 31.82757 36041 ft 429 kts 286°
2026-04-21 23:49 42.04084 31.75145 36040 ft 429 kts 286°
2026-04-21 23:49 42.05870 31.67468 36041 ft 429 kts 286°
2026-04-21 23:50 42.07647 31.59782 36041 ft 429 kts 286°
2026-04-21 23:50 42.09414 31.52094 36050 ft 430 kts 286°
2026-04-21 23:51 42.11178 31.44398 36045 ft 430 kts 286°
2026-04-21 23:51 42.12940 31.36750 36044 ft 430 kts 286°
2026-04-21 23:52 42.14728 31.29046 36044 ft 430 kts 286°
2026-04-21 23:52 42.16501 31.21341 36046 ft 430 kts 286°
2026-04-21 23:53 42.18262 31.13630 36047 ft 430 kts 286°
2026-04-21 23:53 42.20003 31.05963 36044 ft 430 kts 286°
2026-04-21 23:54 42.21749 30.98245 36050 ft 430 kts 286°
2026-04-21 23:54 42.23490 30.90524 36043 ft 430 kts 286°
2026-04-21 23:55 42.25225 30.82803 36044 ft 429 kts 286°
2026-04-21 23:55 42.26953 30.75085 36041 ft 429 kts 286°
2026-04-21 23:56 42.28673 30.67378 36050 ft 429 kts 286°
2026-04-21 23:56 42.30378 30.59707 36053 ft 428 kts 286°
2026-04-21 23:57 42.32085 30.51997 36052 ft 428 kts 286°
2026-04-21 23:57 42.33783 30.44300 36052 ft 427 kts 286°
2026-04-21 23:58 42.35475 30.36603 36053 ft 426 kts 285°
2026-04-21 23:58 42.37158 30.28914 36064 ft 426 kts 285°
2026-04-21 23:59 42.38835 30.21225 36046 ft 426 kts 286°
2026-04-21 23:59 42.40493 30.13588 36058 ft 425 kts 286°
2026-04-22 00:00 42.42155 30.05887 36059 ft 425 kts 285°
2026-04-22 00:00 42.43810 29.98195 36063 ft 425 kts 286°
2026-04-22 00:01 42.45648 29.90590 36083 ft 426 kts 292°
2026-04-22 00:01 42.48431 29.83464 36061 ft 429 kts 299°
2026-04-22 00:02 42.51970 29.76944 36070 ft 430 kts 306°
2026-04-22 00:02 42.55707 29.70661 36081 ft 431 kts 306°
2026-04-22 00:03 42.59457 29.64305 36066 ft 430 kts 305°
2026-04-22 00:03 42.63170 29.57928 36062 ft 429 kts 305°
2026-04-22 00:04 42.66863 29.51543 36064 ft 429 kts 305°
2026-04-22 00:04 42.70515 29.45209 36075 ft 428 kts 305°
2026-04-22 00:05 42.74185 29.38830 36063 ft 428 kts 305°
2026-04-22 00:05 42.77851 29.32446 36062 ft 428 kts 305°
2026-04-22 00:06 42.81514 29.26054 36063 ft 428 kts 305°
2026-04-22 00:06 42.85174 29.19653 36064 ft 428 kts 305°
2026-04-22 00:07 42.88827 29.13251 36067 ft 428 kts 305°
2026-04-22 00:07 42.92456 29.06878 36066 ft 428 kts 304°
2026-04-22 00:08 42.96104 29.00457 36067 ft 428 kts 304°
2026-04-22 00:08 42.99756 28.94015 36082 ft 429 kts 304°
2026-04-22 00:09 43.03401 28.87570 36072 ft 429 kts 304°
2026-04-22 00:09 43.07047 28.81111 36070 ft 429 kts 304°
2026-04-22 00:10 43.10690 28.74643 36066 ft 429 kts 304°
2026-04-22 00:10 43.14325 28.68174 36070 ft 429 kts 304°
2026-04-22 00:11 43.17957 28.61696 36076 ft 428 kts 304°
2026-04-22 00:11 43.21582 28.55216 36073 ft 428 kts 304°
2026-04-22 00:12 43.25209 28.48719 36071 ft 428 kts 304°
2026-04-22 00:12 43.28825 28.42226 36077 ft 428 kts 304°
2026-04-22 00:13 43.32440 28.35719 36078 ft 429 kts 304°
2026-04-22 00:13 43.36031 28.29241 36072 ft 429 kts 304°
2026-04-22 00:14 43.39646 28.22705 36067 ft 429 kts 304°
2026-04-22 00:14 43.43265 28.16147 36074 ft 430 kts 304°
2026-04-22 00:15 43.46881 28.09577 36063 ft 430 kts 304°
2026-04-22 00:15 43.50492 28.02997 36055 ft 430 kts 304°
2026-04-22 00:16 43.54071 27.96455 36059 ft 430 kts 304°
2026-04-22 00:16 43.57677 27.89847 36063 ft 431 kts 304°
2026-04-22 00:17 43.61331 27.83272 36068 ft 432 kts 307°
2026-04-22 00:17 43.65431 27.77148 36063 ft 434 kts 309°
2026-04-22 00:18 43.69583 27.71089 36069 ft 434 kts 309°
2026-04-22 00:18 43.73698 27.65020 36063 ft 436 kts 309°
2026-04-22 00:19 43.77836 27.58867 36060 ft 437 kts 309°
2026-04-22 00:19 43.81970 27.52689 36058 ft 438 kts 309°
2026-04-22 00:20 43.86115 27.46480 36061 ft 439 kts 309°
2026-04-22 00:20 43.90270 27.40243 36054 ft 439 kts 309°
2026-04-22 00:21 43.94385 27.34054 36057 ft 440 kts 309°
2026-04-22 00:21 43.98540 27.27792 36052 ft 439 kts 309°
2026-04-22 00:22 44.01974 27.22606 36051 ft 439 kts 309°
2026-04-22 00:22 44.06116 27.16337 36058 ft 440 kts 309°
2026-04-22 00:23 44.10256 27.10057 36059 ft 441 kts 309°
2026-04-22 00:23 44.14403 27.03752 36045 ft 441 kts 309°
2026-04-22 00:24 44.18550 26.97434 36056 ft 441 kts 309°
2026-04-22 00:24 44.22688 26.91115 36057 ft 442 kts 309°
2026-04-22 00:25 44.26830 26.84776 36054 ft 442 kts 309°
2026-04-22 00:25 44.30948 26.78460 36056 ft 442 kts 309°
2026-04-22 00:26 44.35090 26.72092 36051 ft 442 kts 309°
2026-04-22 00:26 44.39225 26.65719 36064 ft 443 kts 309°
2026-04-22 00:27 44.43368 26.59321 36059 ft 443 kts 309°
2026-04-22 00:27 44.47487 26.52945 36043 ft 444 kts 309°
2026-04-22 00:28 44.51634 26.46511 36073 ft 444 kts 309°
2026-04-22 00:28 44.55775 26.40072 36070 ft 444 kts 309°
2026-04-22 00:29 44.59917 26.33616 36057 ft 445 kts 309°
2026-04-22 00:29 44.64025 26.27198 36053 ft 445 kts 309°
2026-04-22 00:30 44.68163 26.20720 36074 ft 444 kts 309°
2026-04-22 00:30 44.72286 26.14248 36097 ft 444 kts 309°
2026-04-22 00:31 44.76413 26.07757 36083 ft 445 kts 309°
2026-04-22 00:31 44.80541 26.01248 36077 ft 446 kts 309°
2026-04-22 00:32 44.84673 25.94718 36083 ft 446 kts 309°
2026-04-22 00:32 44.88771 25.88225 36079 ft 446 kts 309°
2026-04-22 00:33 44.92900 25.81670 36073 ft 446 kts 309°
2026-04-22 00:33 44.97023 25.75108 36081 ft 446 kts 309°
2026-04-22 00:34 45.01142 25.68538 36092 ft 446 kts 309°
2026-04-22 00:34 45.05263 25.61948 36092 ft 447 kts 309°
2026-04-22 00:35 45.09386 25.55339 36090 ft 448 kts 309°
2026-04-22 00:35 45.13492 25.48743 36097 ft 449 kts 309°
2026-04-22 00:36 45.17621 25.42092 36098 ft 449 kts 309°
2026-04-22 00:36 45.21751 25.35425 36100 ft 450 kts 309°
2026-04-22 00:37 45.25882 25.28741 36095 ft 450 kts 309°
2026-04-22 00:37 45.30009 25.22047 36093 ft 451 kts 309°
2026-04-22 00:38 45.34109 25.15381 36094 ft 451 kts 309°
2026-04-22 00:38 45.38245 25.08640 36095 ft 450 kts 309°
2026-04-22 00:39 45.42360 25.01917 36099 ft 451 kts 309°
2026-04-22 00:39 45.46480 24.95170 36087 ft 451 kts 309°
2026-04-22 00:40 45.50582 24.88436 36080 ft 452 kts 309°
2026-04-22 00:40 45.54707 24.81646 36083 ft 453 kts 309°
2026-04-22 00:41 45.58835 24.74837 36084 ft 452 kts 309°
2026-04-22 00:41 45.62957 24.68020 36078 ft 453 kts 309°
2026-04-22 00:42 45.67077 24.61192 36091 ft 454 kts 309°
2026-04-22 00:42 45.71176 24.54376 36085 ft 455 kts 309°
2026-04-22 00:43 45.75298 24.47507 36103 ft 455 kts 309°
2026-04-22 00:43 45.79431 24.40604 36094 ft 456 kts 309°
2026-04-22 00:44 45.83568 24.33679 36062 ft 457 kts 309°
2026-04-22 00:44 45.87693 24.26755 36052 ft 457 kts 309°
2026-04-22 00:45 45.91816 24.19817 36063 ft 456 kts 309°
2026-04-22 00:45 45.95911 24.12909 36062 ft 456 kts 309°
2026-04-22 00:46 46.00024 24.05952 36067 ft 456 kts 309°
2026-04-22 00:46 46.04133 23.98985 36078 ft 456 kts 309°
2026-04-22 00:47 46.08235 23.92015 36084 ft 456 kts 309°
2026-04-22 00:47 46.12335 23.85028 36103 ft 456 kts 309°
2026-04-22 00:48 46.16426 23.78039 36097 ft 457 kts 309°
2026-04-22 00:48 46.20494 23.71071 36095 ft 457 kts 309°
2026-04-22 00:49 46.24588 23.64041 36097 ft 457 kts 309°
2026-04-22 00:49 46.28675 23.57005 36104 ft 457 kts 309°
2026-04-22 00:50 46.32762 23.49952 36102 ft 457 kts 309°
2026-04-22 00:50 46.36822 23.42927 36104 ft 457 kts 309°
2026-04-22 00:51 46.40899 23.35855 36100 ft 457 kts 309°
2026-04-22 00:51 46.44973 23.28770 36113 ft 457 kts 309°
2026-04-22 00:52 46.49038 23.21682 36111 ft 457 kts 309°
2026-04-22 00:52 46.53101 23.14579 36115 ft 457 kts 309°
2026-04-22 00:53 46.57168 23.07451 36112 ft 458 kts 309°
2026-04-22 00:53 46.61233 23.00309 36116 ft 458 kts 309°
2026-04-22 00:54 46.65290 22.93160 36117 ft 458 kts 309°
2026-04-22 00:54 46.69321 22.86040 36114 ft 458 kts 309°
2026-04-22 00:55 46.73371 22.78867 36118 ft 458 kts 309°
2026-04-22 00:55 46.79430 22.68101 36124 ft 458 kts 309°
2026-04-22 00:56 46.83471 22.60896 36122 ft 458 kts 309°
2026-04-22 00:56 46.87513 22.53671 36113 ft 459 kts 309°
2026-04-22 00:57 46.91548 22.46438 36110 ft 459 kts 309°
2026-04-22 00:57 46.95563 22.39221 36112 ft 460 kts 309°
2026-04-22 00:58 46.99604 22.31939 36107 ft 460 kts 309°
2026-04-22 00:58 47.03633 22.24658 36104 ft 460 kts 309°
2026-04-22 00:59 47.07663 22.17355 36103 ft 460 kts 309°
2026-04-22 00:59 47.11682 22.10049 36109 ft 460 kts 309°
2026-04-22 01:00 47.15670 22.02777 36118 ft 460 kts 309°
2026-04-22 01:00 47.19676 21.95442 36102 ft 460 kts 309°
2026-04-22 01:01 47.23689 21.88083 36114 ft 461 kts 309°
2026-04-22 01:01 47.27692 21.80686 36106 ft 462 kts 308°
2026-04-22 01:02 47.31658 21.73223 36104 ft 462 kts 308°
2026-04-22 01:02 47.35610 21.65728 36095 ft 463 kts 308°
2026-04-22 01:03 47.39562 21.58216 36104 ft 463 kts 308°
2026-04-22 01:03 47.43506 21.50703 36112 ft 463 kts 308°
2026-04-22 01:04 47.47421 21.43227 36112 ft 463 kts 308°
2026-04-22 01:04 47.51361 21.35684 36123 ft 463 kts 308°
2026-04-22 01:05 47.55298 21.28126 36109 ft 464 kts 308°
2026-04-22 01:05 47.59236 21.20544 36112 ft 465 kts 308°
2026-04-22 01:06 47.63180 21.12929 36112 ft 465 kts 308°
2026-04-22 01:06 47.67113 21.05312 36113 ft 465 kts 308°
2026-04-22 01:07 47.71047 20.97673 36114 ft 466 kts 308°
2026-04-22 01:07 47.74948 20.90077 36114 ft 466 kts 308°
2026-04-22 01:08 47.78872 20.82414 36114 ft 466 kts 308°
2026-04-22 01:08 47.82791 20.74740 36114 ft 465 kts 308°
2026-04-22 01:09 47.86707 20.67051 36116 ft 466 kts 308°
2026-04-22 01:09 47.89954 20.60656 36120 ft 466 kts 308°
2026-04-22 01:10 47.93866 20.52933 36129 ft 466 kts 308°
2026-04-22 01:10 47.97770 20.45202 36127 ft 467 kts 308°
2026-04-22 01:11 48.01672 20.37450 36127 ft 467 kts 308°
2026-04-22 01:11 48.05574 20.29673 36149 ft 467 kts 308°
2026-04-22 01:12 48.09470 20.21885 36144 ft 468 kts 308°
2026-04-22 01:12 48.13359 20.14071 36153 ft 468 kts 308°
2026-04-22 01:13 48.17249 20.06256 36149 ft 468 kts 308°
2026-04-22 01:13 48.21146 19.98520 36157 ft 468 kts 309°
2026-04-22 01:14 48.25107 19.90756 36154 ft 469 kts 309°
2026-04-22 01:14 48.29062 19.82947 36158 ft 470 kts 308°
2026-04-22 01:15 48.33005 19.75101 36164 ft 470 kts 308°
2026-04-22 01:15 48.36938 19.67242 36157 ft 471 kts 308°
2026-04-22 01:16 48.40870 19.59360 36169 ft 471 kts 308°
2026-04-22 01:16 48.44774 19.51515 36171 ft 471 kts 308°
2026-04-22 01:17 48.48700 19.43602 36174 ft 471 kts 308°
2026-04-22 01:17 48.52622 19.35676 36176 ft 472 kts 308°
2026-04-22 01:18 48.56542 19.27728 36190 ft 472 kts 308°
2026-04-22 01:18 48.60458 19.19767 36194 ft 472 kts 308°
2026-04-22 01:19 48.64375 19.11780 36193 ft 473 kts 308°
2026-04-22 01:19 48.68289 19.03772 36195 ft 473 kts 308°
2026-04-22 01:20 48.72195 18.95759 36200 ft 473 kts 308°
2026-04-22 01:20 48.76098 18.87727 36200 ft 474 kts 308°
2026-04-22 01:21 48.80004 18.79666 36198 ft 474 kts 308°
2026-04-22 01:21 48.83903 18.71593 36198 ft 474 kts 308°
2026-04-22 01:22 48.87775 18.63552 36195 ft 474 kts 308°
2026-04-22 01:22 48.91664 18.55449 36202 ft 474 kts 308°
2026-04-22 01:23 48.95548 18.47332 36203 ft 474 kts 308°
2026-04-22 01:23 48.99433 18.39185 36204 ft 475 kts 308°
2026-04-22 01:24 49.03283 18.31086 36195 ft 475 kts 308°
2026-04-22 01:24 49.07145 18.22925 36201 ft 474 kts 308°
2026-04-22 01:25 49.11001 18.14749 36206 ft 474 kts 308°
2026-04-22 01:25 49.14807 18.06511 36202 ft 475 kts 306°
2026-04-22 01:26 49.18428 17.98060 36206 ft 475 kts 305°
2026-04-22 01:26 49.22009 17.89548 36217 ft 475 kts 305°
2026-04-22 01:27 49.25604 17.81030 36202 ft 476 kts 305°
2026-04-22 01:27 49.29185 17.72562 36205 ft 477 kts 305°
2026-04-22 01:28 49.32788 17.64029 36207 ft 477 kts 305°
2026-04-22 01:28 49.36391 17.55471 36208 ft 477 kts 305°
2026-04-22 01:29 49.39981 17.46914 36209 ft 477 kts 305°
2026-04-22 01:29 49.43568 17.38334 36205 ft 477 kts 305°
2026-04-22 01:30 49.47129 17.29789 36207 ft 476 kts 305°
2026-04-22 01:30 49.50696 17.21203 36216 ft 476 kts 305°
2026-04-22 01:31 49.54261 17.12594 36199 ft 476 kts 305°
2026-04-22 01:31 49.57821 17.03970 36223 ft 477 kts 305°
2026-04-22 01:32 49.61369 16.95344 36223 ft 477 kts 305°
2026-04-22 01:32 49.64921 16.86682 36216 ft 477 kts 305°
2026-04-22 01:33 49.68438 16.78076 36227 ft 477 kts 305°
2026-04-22 01:33 49.71975 16.69393 36232 ft 478 kts 305°
2026-04-22 01:34 49.75515 16.60673 36235 ft 478 kts 305°
2026-04-22 01:34 49.79045 16.51951 36234 ft 478 kts 304°
2026-04-22 01:35 49.82567 16.43215 36231 ft 478 kts 305°
2026-04-22 01:35 49.86074 16.34493 36236 ft 478 kts 304°
2026-04-22 01:36 49.89581 16.25739 36236 ft 478 kts 304°
2026-04-22 01:36 49.93086 16.16962 36238 ft 478 kts 304°
2026-04-22 01:37 49.96585 16.08171 36224 ft 479 kts 304°
2026-04-22 01:37 50.00076 15.99369 36230 ft 479 kts 304°
2026-04-22 01:38 50.03567 15.90539 36241 ft 479 kts 304°
2026-04-22 01:38 50.07050 15.81698 36240 ft 479 kts 304°
2026-04-22 01:39 50.10508 15.72892 36226 ft 479 kts 304°
2026-04-22 01:39 50.13979 15.64020 36236 ft 479 kts 304°
2026-04-22 01:40 50.17444 15.55136 36241 ft 479 kts 304°
2026-04-22 01:40 50.20904 15.46232 36241 ft 479 kts 304°
2026-04-22 01:41 50.24354 15.37327 36239 ft 479 kts 304°
2026-04-22 01:41 50.27801 15.28395 36229 ft 479 kts 304°
2026-04-22 01:42 50.31236 15.19465 36243 ft 479 kts 304°
2026-04-22 01:42 50.34645 15.10573 36252 ft 479 kts 304°
2026-04-22 01:43 50.38069 15.01611 36244 ft 480 kts 304°
2026-04-22 01:43 50.41497 14.92607 36246 ft 480 kts 304°
2026-04-22 01:44 50.44917 14.83591 36269 ft 481 kts 304°
2026-04-22 01:44 50.48320 14.74589 36255 ft 482 kts 304°
2026-04-22 01:45 50.51735 14.65521 36263 ft 482 kts 304°
2026-04-22 01:45 50.55149 14.56425 36261 ft 483 kts 304°
2026-04-22 01:46 50.58552 14.47324 36271 ft 482 kts 304°
2026-04-22 01:46 50.61947 14.38213 36271 ft 482 kts 304°
2026-04-22 01:47 50.65333 14.29092 36274 ft 482 kts 304°
2026-04-22 01:47 50.68708 14.19965 36279 ft 482 kts 304°
2026-04-22 01:48 50.72054 14.10878 36265 ft 482 kts 304°
2026-04-22 01:48 50.75412 14.01717 36284 ft 482 kts 304°
2026-04-22 01:49 50.78766 13.92535 36288 ft 483 kts 304°
2026-04-22 01:49 50.81976 13.83177 36296 ft 484 kts 300°
2026-04-22 01:50 50.84952 13.73582 36292 ft 486 kts 300°
2026-04-22 01:50 50.87903 13.63937 36299 ft 487 kts 300°
2026-04-22 01:51 50.90850 13.54285 36293 ft 487 kts 300°
2026-04-22 01:51 50.93799 13.44613 36295 ft 487 kts 300°
2026-04-22 01:52 50.96742 13.34937 36301 ft 487 kts 300°
2026-04-22 01:52 50.99674 13.25255 36295 ft 486 kts 300°
2026-04-22 01:53 51.02594 13.15574 36298 ft 486 kts 300°
2026-04-22 01:53 51.05485 13.05949 36300 ft 486 kts 299°
2026-04-22 01:54 51.08389 12.96243 36306 ft 486 kts 299°
2026-04-22 01:54 51.11285 12.86525 36294 ft 486 kts 300°
2026-04-22 01:55 51.14177 12.76780 36312 ft 486 kts 299°
2026-04-22 01:55 51.17058 12.67031 36317 ft 487 kts 299°
2026-04-22 01:56 51.19454 12.58896 36318 ft 488 kts 299°
2026-04-22 01:56 51.22329 12.49094 36315 ft 488 kts 299°
2026-04-22 01:57 51.25199 12.39269 36311 ft 488 kts 299°
2026-04-22 01:57 51.28066 12.29416 36317 ft 488 kts 299°
2026-04-22 01:58 51.30922 12.19559 36323 ft 489 kts 299°
2026-04-22 01:58 51.33752 12.09751 36326 ft 489 kts 299°
2026-04-22 01:59 51.36589 11.99874 36309 ft 488 kts 298°
2026-04-22 01:59 51.39418 11.89987 36332 ft 488 kts 298°
2026-04-22 02:00 51.42243 11.80073 36334 ft 488 kts 298°
2026-04-22 02:00 51.45054 11.70165 36343 ft 488 kts 298°
2026-04-22 02:01 51.47857 11.60241 36331 ft 489 kts 298°
2026-04-22 02:01 51.50657 11.50286 36328 ft 489 kts 298°
2026-04-22 02:02 51.53429 11.40386 36336 ft 489 kts 298°
2026-04-22 02:02 51.56215 11.30392 36345 ft 489 kts 298°
2026-04-22 02:03 51.58988 11.20397 36341 ft 489 kts 298°
2026-04-22 02:03 51.61750 11.10392 36331 ft 489 kts 298°
2026-04-22 02:04 51.65854 10.95419 36344 ft 489 kts 298°
2026-04-22 02:05 51.68553 10.85361 36339 ft 489 kts 296°
2026-04-22 02:05 51.70994 10.75105 36346 ft 490 kts 294°
2026-04-22 02:06 51.73363 10.64790 36347 ft 490 kts 294°
2026-04-22 02:06 51.75751 10.54467 36348 ft 490 kts 295°
2026-04-22 02:07 51.78147 10.44163 36350 ft 490 kts 295°
2026-04-22 02:07 51.80543 10.33834 36348 ft 491 kts 294°
2026-04-22 02:08 51.82916 10.23549 36333 ft 490 kts 294°
2026-04-22 02:08 51.85287 10.13217 36334 ft 490 kts 294°
2026-04-22 02:09 51.87652 10.02857 36348 ft 490 kts 294°
2026-04-22 02:09 51.90008 9.92487 36354 ft 490 kts 294°
2026-04-22 02:10 51.92339 9.82170 36353 ft 491 kts 294°
2026-04-22 02:10 51.94679 9.71762 36343 ft 491 kts 294°
2026-04-22 02:11 51.97011 9.61335 36350 ft 491 kts 294°
2026-04-22 02:11 51.99328 9.50917 36351 ft 491 kts 294°
2026-04-22 02:12 52.01629 9.40499 36360 ft 490 kts 294°
2026-04-22 02:12 52.03920 9.30071 36357 ft 490 kts 294°
2026-04-22 02:13 52.06080 9.19553 36349 ft 491 kts 290°
2026-04-22 02:13 52.07905 9.08915 36349 ft 492 kts 289°
2026-04-22 02:14 52.09702 8.98180 36346 ft 492 kts 289°
2026-04-22 02:14 52.11494 8.87430 36348 ft 493 kts 289°
2026-04-22 02:15 52.13285 8.76667 36333 ft 492 kts 289°
2026-04-22 02:15 52.15066 8.65915 36337 ft 492 kts 289°
2026-04-22 02:16 52.16838 8.55157 36345 ft 492 kts 289°
2026-04-22 02:16 52.18604 8.44362 36348 ft 492 kts 289°
2026-04-22 02:17 52.20355 8.33588 36351 ft 491 kts 289°
2026-04-22 02:17 52.22096 8.22811 36348 ft 491 kts 289°
2026-04-22 02:18 52.23815 8.12096 36348 ft 491 kts 288°
2026-04-22 02:18 52.25535 8.01309 36331 ft 491 kts 288°
2026-04-22 02:19 52.27245 7.90519 36330 ft 491 kts 288°
2026-04-22 02:19 52.28944 7.79723 36345 ft 491 kts 288°
2026-04-22 02:20 52.30635 7.68902 36350 ft 491 kts 288°
2026-04-22 02:20 52.32316 7.58078 36347 ft 492 kts 288°
2026-04-22 02:21 52.33990 7.47228 36363 ft 492 kts 288°
2026-04-22 02:21 52.35652 7.36375 36349 ft 491 kts 287°
2026-04-22 02:22 52.37304 7.25522 36364 ft 491 kts 287°
2026-04-22 02:22 52.38946 7.14664 36360 ft 490 kts 287°
2026-04-22 02:23 52.40574 7.03823 36360 ft 490 kts 287°
2026-04-22 02:23 52.42190 6.92986 36349 ft 489 kts 287°
2026-04-22 02:24 52.43784 6.82220 36356 ft 488 kts 287°
2026-04-22 02:24 52.45375 6.71400 36358 ft 488 kts 287°
2026-04-22 02:25 52.46957 6.60576 36358 ft 487 kts 287°
2026-04-22 02:25 52.48527 6.49753 36361 ft 487 kts 287°
2026-04-22 02:26 52.50075 6.39003 36358 ft 487 kts 286°
2026-04-22 02:26 52.51623 6.28184 36364 ft 486 kts 286°
2026-04-22 02:27 52.53161 6.17349 36367 ft 487 kts 286°
2026-04-22 02:27 52.54693 6.06489 36364 ft 487 kts 286°
2026-04-22 02:28 52.56212 5.95637 36352 ft 487 kts 285°
2026-04-22 02:28 52.57710 5.84853 36363 ft 486 kts 285°
2026-04-22 02:29 52.59208 5.73998 36365 ft 486 kts 285°
2026-04-22 02:29 52.60694 5.63149 36372 ft 486 kts 285°
2026-04-22 02:30 52.62169 5.52297 36372 ft 486 kts 285°
2026-04-22 02:30 52.63634 5.41447 36376 ft 485 kts 285°
2026-04-22 02:31 52.65089 5.30585 36367 ft 485 kts 285°
2026-04-22 02:31 52.66525 5.19785 36377 ft 486 kts 285°
2026-04-22 02:32 52.67963 5.08882 36374 ft 486 kts 285°
2026-04-22 02:32 52.69391 4.97976 36364 ft 486 kts 284°
2026-04-22 02:33 52.70808 4.87063 36370 ft 486 kts 284°
2026-04-22 02:33 52.72214 4.76157 36366 ft 486 kts 284°
2026-04-22 02:34 52.73611 4.65235 36364 ft 486 kts 284°
2026-04-22 02:34 52.74998 4.54311 36367 ft 486 kts 284°
2026-04-22 02:35 52.76372 4.43391 36370 ft 486 kts 284°
2026-04-22 02:35 52.77730 4.32521 36368 ft 486 kts 284°
2026-04-22 02:36 52.79085 4.21586 36377 ft 486 kts 284°
2026-04-22 02:36 52.80431 4.10633 36378 ft 486 kts 284°
2026-04-22 02:37 52.81764 3.99690 36371 ft 486 kts 284°
2026-04-22 02:37 52.83090 3.88724 36385 ft 486 kts 284°
2026-04-22 02:38 52.84406 3.77743 36372 ft 487 kts 284°
2026-04-22 02:38 52.85715 3.66725 36382 ft 488 kts 283°
2026-04-22 02:39 52.87012 3.55696 36369 ft 488 kts 283°
2026-04-22 02:39 52.88295 3.44702 36367 ft 489 kts 283°
2026-04-22 02:40 52.89571 3.33649 36378 ft 488 kts 282°
2026-04-22 02:40 52.90831 3.22584 36371 ft 489 kts 283°
2026-04-22 02:41 52.92100 3.11531 36388 ft 488 kts 284°
2026-04-22 02:41 52.93557 3.00538 36387 ft 487 kts 285°
2026-04-22 02:42 52.94807 2.91427 36378 ft 486 kts 285°
2026-04-22 02:42 52.96505 2.78628 36381 ft 485 kts 284°
2026-04-22 02:43 52.97907 2.67759 36384 ft 484 kts 283°
2026-04-22 02:43 52.99079 2.58600 36384 ft 485 kts 284°
2026-04-22 02:44 53.00461 2.47708 36399 ft 486 kts 283°
2026-04-22 02:44 53.01844 2.36717 36388 ft 485 kts 283°
2026-04-22 02:45 53.03213 2.25742 36389 ft 485 kts 283°
2026-04-22 02:45 53.04566 2.14785 36384 ft 484 kts 283°
2026-04-22 02:46 53.05927 2.03820 36392 ft 483 kts 283°
2026-04-22 02:46 53.07288 1.92888 36386 ft 481 kts 284°
2026-04-22 02:47 53.08612 1.82102 36396 ft 478 kts 283°
2026-04-22 02:47 53.09922 1.71269 36384 ft 476 kts 284°
2026-04-22 02:48 53.11214 1.60477 36398 ft 475 kts 283°
2026-04-22 02:48 53.12496 1.49684 36401 ft 475 kts 283°
2026-04-22 02:49 53.13765 1.38897 36386 ft 473 kts 283°
2026-04-22 02:49 53.15013 1.28213 36395 ft 472 kts 283°
2026-04-22 02:50 53.16257 1.17475 36400 ft 471 kts 283°
2026-04-22 02:50 53.17488 1.06749 36398 ft 471 kts 283°
2026-04-22 02:51 53.18710 0.96006 36405 ft 471 kts 283°
2026-04-22 02:51 53.19918 0.85282 36403 ft 470 kts 283°
2026-04-22 02:52 53.21113 0.74557 36403 ft 470 kts 283°
2026-04-22 02:52 53.22296 0.63839 36404 ft 469 kts 283°
2026-04-22 02:53 53.23469 0.53198 36390 ft 469 kts 283°
2026-04-22 02:53 53.24642 0.42511 36405 ft 468 kts 283°
2026-04-22 02:54 53.25802 0.31834 36394 ft 467 kts 282°
2026-04-22 02:54 53.26940 0.21149 36401 ft 467 kts 282°
2026-04-22 02:55 53.28061 0.10439 36400 ft 468 kts 282°
2026-04-22 02:55 53.29186 -0.00288 36389 ft 468 kts 282°
2026-04-22 02:56 53.30308 -0.11011 36387 ft 467 kts 282°
2026-04-22 02:56 53.31399 -0.21647 36380 ft 467 kts 282°
2026-04-22 02:57 53.32476 -0.32334 36391 ft 465 kts 282°
2026-04-22 02:57 53.33554 -0.43014 36377 ft 465 kts 282°
2026-04-22 02:58 53.34630 -0.53665 36373 ft 464 kts 282°
2026-04-22 02:58 53.35695 -0.64327 36387 ft 464 kts 282°
2026-04-22 02:59 53.36743 -0.74997 36391 ft 464 kts 282°
2026-04-22 02:59 53.37767 -0.85676 36397 ft 464 kts 281°
2026-04-22 03:00 53.38795 -0.96359 36410 ft 465 kts 282°
2026-04-22 03:00 53.39854 -1.07048 36406 ft 464 kts 282°
2026-04-22 03:01 53.40865 -1.17646 36406 ft 463 kts 281°
2026-04-22 03:01 53.41855 -1.28298 36413 ft 462 kts 281°
2026-04-22 03:02 53.42843 -1.38919 36421 ft 461 kts 281°
2026-04-22 03:02 53.43838 -1.49556 36416 ft 460 kts 281°
2026-04-22 03:03 53.44817 -1.60170 36421 ft 459 kts 281°
2026-04-22 03:03 53.45768 -1.70685 36419 ft 458 kts 281°
2026-04-22 03:04 53.46716 -1.81237 36422 ft 457 kts 281°
2026-04-22 03:04 53.47649 -1.91800 36417 ft 457 kts 281°
2026-04-22 03:05 53.48559 -2.02356 36409 ft 457 kts 281°
2026-04-22 03:05 53.49455 -2.12914 36400 ft 456 kts 280°
2026-04-22 03:06 53.50357 -2.23440 36402 ft 455 kts 281°
2026-04-22 03:06 53.51267 -2.33980 36395 ft 455 kts 280°
2026-04-22 03:07 53.52157 -2.44519 36394 ft 455 kts 280°
2026-04-22 03:07 53.53022 -2.54973 36400 ft 455 kts 280°
2026-04-22 03:08 53.53882 -2.65501 36399 ft 455 kts 279°
2026-04-22 03:08 53.54733 -2.76047 36401 ft 455 kts 279°
2026-04-22 03:09 53.55578 -2.86621 36401 ft 455 kts 279°
2026-04-22 03:09 53.56411 -2.97185 36403 ft 455 kts 279°
2026-04-22 03:10 53.57230 -3.07690 36401 ft 456 kts 279°
2026-04-22 03:10 53.58044 -3.18269 36396 ft 456 kts 279°
2026-04-22 03:11 53.58848 -3.28850 36404 ft 456 kts 279°
2026-04-22 03:11 53.59641 -3.39433 36405 ft 456 kts 279°
2026-04-22 03:12 53.60420 -3.50033 36401 ft 456 kts 279°
2026-04-22 03:12 53.61823 -3.65859 36395 ft 455 kts 285°
2026-04-22 03:13 53.63827 -3.75958 36379 ft 454 kts 293°
2026-04-22 03:13 53.66253 -3.85808 36387 ft 455 kts 293°
2026-04-22 03:14 53.68605 -3.95647 36406 ft 455 kts 292°
2026-04-22 03:14 53.70819 -4.05631 36392 ft 454 kts 287°
2026-04-22 03:15 53.72043 -4.16091 36393 ft 456 kts 277°
2026-04-22 03:15 53.72428 -4.26777 36390 ft 455 kts 275°
2026-04-22 03:16 53.72769 -4.37390 36399 ft 455 kts 275°
2026-04-22 03:16 53.73147 -4.48051 36388 ft 454 kts 275°
2026-04-22 03:17 53.73525 -4.58716 36378 ft 455 kts 275°
2026-04-22 03:17 53.73876 -4.69382 36388 ft 454 kts 275°
2026-04-22 03:18 53.74219 -4.80042 36382 ft 454 kts 275°
2026-04-22 03:18 53.74568 -4.90726 36379 ft 455 kts 275°
2026-04-22 03:19 53.74920 -5.01382 36393 ft 454 kts 275°
2026-04-22 03:19 53.74902 -5.12036 36395 ft 454 kts 265°
2026-04-22 03:20 53.73675 -5.22457 36368 ft 458 kts 255°
2026-04-22 03:20 53.71641 -5.32404 36361 ft 432 kts 253°
2026-04-22 03:21 53.70658 -5.37100 36373 ft 417 kts 253°
2026-04-22 03:21 53.69721 -5.41643 36349 ft 402 kts 254°
2026-04-22 03:21 53.67934 -5.50436 36357 ft 394 kts 254°
2026-04-22 03:22 53.66220 -5.59178 36390 ft 391 kts 255°
2026-04-22 03:22 53.64617 -5.67935 36356 ft 391 kts 257°
2026-04-22 03:23 53.63120 -5.76760 36381 ft 392 kts 257°
2026-04-22 03:23 53.61732 -5.85594 36371 ft 393 kts 259°
2026-04-22 03:24 53.60436 -5.94559 36369 ft 394 kts 259°
2026-04-22 03:24 53.59246 -6.03553 36365 ft 393 kts 261°
2026-04-22 03:25 53.58167 -6.12570 36348 ft 392 kts 262°
2026-04-22 03:25 53.57201 -6.21558 36353 ft 391 kts 263°
2026-04-22 03:26 53.56341 -6.30604 36344 ft 392 kts 264°
2026-04-22 03:26 53.55588 -6.39713 36347 ft 393 kts 265°
2026-04-22 03:27 53.54947 -6.48804 36348 ft 395 kts 266°
2026-04-22 03:27 53.54407 -6.58029 36351 ft 397 kts 267°
2026-04-22 03:28 53.53975 -6.67287 36338 ft 398 kts 268°
2026-04-22 03:28 53.53652 -6.76590 36332 ft 399 kts 269°
2026-04-22 03:29 53.53467 -6.84325 36327 ft 399 kts 270°
2026-04-22 03:29 53.53337 -6.95157 36333 ft 398 kts 271°
2026-04-22 03:30 53.53336 -7.02960 36340 ft 398 kts 272°
2026-04-22 03:30 53.53436 -7.12272 36337 ft 398 kts 273°
2026-04-22 03:31 53.53645 -7.21576 36331 ft 398 kts 274°
2026-04-22 03:31 53.53964 -7.30867 36320 ft 397 kts 275°
2026-04-22 03:32 53.54390 -7.40059 36322 ft 397 kts 276°
2026-04-22 03:32 53.54932 -7.49366 36342 ft 407 kts 277°
2026-04-22 03:33 53.55603 -7.59005 36341 ft 423 kts 278°
2026-04-22 03:33 53.56406 -7.69018 36335 ft 439 kts 279°
2026-04-22 03:34 53.57333 -7.79328 36329 ft 452 kts 279°
2026-04-22 03:34 53.58381 -7.89891 36314 ft 457 kts 280°
2026-04-22 03:35 53.59524 -8.00414 36328 ft 463 kts 281°
2026-04-22 03:35 53.60782 -8.11104 36319 ft 465 kts 282°
2026-04-22 03:36 53.62132 -8.21746 36311 ft 464 kts 283°
2026-04-22 03:36 53.63578 -8.32360 36309 ft 464 kts 283°
2026-04-22 03:37 53.65118 -8.42920 36319 ft 464 kts 283°
2026-04-22 03:37 53.66750 -8.53433 36304 ft 464 kts 285°
2026-04-22 03:38 53.68481 -8.63929 36310 ft 465 kts 286°
2026-04-22 03:38 53.70307 -8.74394 36321 ft 465 kts 287°
2026-04-22 03:39 53.72230 -8.84836 36315 ft 465 kts 287°
2026-04-22 03:39 53.74233 -8.95158 36304 ft 465 kts 288°
2026-04-22 03:40 53.76340 -9.05495 36300 ft 466 kts 289°
2026-04-22 03:40 53.78557 -9.15865 36315 ft 467 kts 289°
2026-04-22 03:41 53.80851 -9.26136 36305 ft 465 kts 289°
2026-04-22 03:41 53.82115 -9.36787 36306 ft 461 kts 271°
2026-04-22 03:42 53.81374 -9.47470 36312 ft 461 kts 253°
2026-04-22 03:42 53.78716 -9.57279 36316 ft 460 kts 236°
2026-04-22 03:43 53.74405 -9.65187 36303 ft 460 kts 219°
2026-04-22 03:43 53.71377 -9.68201 36296 ft 460 kts 201°
2026-04-22 03:43 53.65012 -9.69258 36306 ft 471 kts 173°
2026-04-22 03:44 53.59001 -9.64814 36286 ft 482 kts 142°
2026-04-22 03:44 53.54234 -9.50068 36168 ft 500 kts 98°
2026-04-22 03:44 53.54007 -9.37529 36288 ft 497 kts 94°
2026-04-22 03:44 53.53950 -9.31729 36073 ft 492 kts 93°
2026-04-22 03:45 53.53882 -9.26057 35655 ft 479 kts 93°
2026-04-22 03:45 53.53797 -9.20469 34524 ft 478 kts 94°
2026-04-22 03:45 53.53691 -9.14859 32854 ft 485 kts 94°
2026-04-22 03:45 53.53572 -9.09144 31095 ft 491 kts 94°
2026-04-22 03:46 53.53448 -9.03459 29693 ft 490 kts 94°
2026-04-22 03:46 53.53196 -8.92502 28335 ft 477 kts 94°
2026-04-22 03:46 53.53064 -8.86975 27927 ft 467 kts 94°
2026-04-22 03:46 53.52933 -8.81529 27367 ft 462 kts 94°
2026-04-22 03:47 53.52550 -8.66456 25721 ft 452 kts 94°
2026-04-22 03:47 53.52001 -8.45719 23497 ft 431 kts 94°
2026-04-22 03:47 53.51465 -8.26569 21141 ft 412 kts 93°
2026-04-22 03:47 53.50899 -8.07387 19051 ft 409 kts 94°
2026-04-22 03:48 53.50312 -7.88534 16692 ft 396 kts 94°
2026-04-22 03:48 53.49723 -7.70510 14449 ft 367 kts 94°
2026-04-22 03:48 53.49145 -7.53622 12192 ft 358 kts 95°
2026-04-22 03:48 53.48572 -7.37411 10743 ft 328 kts 95°
2026-04-22 03:49 53.48277 -7.29406 10502 ft 301 kts 96°
2026-04-22 03:49 53.48150 -7.25977 10482 ft 287 kts 96°
2026-04-22 03:49 53.48027 -7.22692 10433 ft 274 kts 96°
2026-04-22 03:49 53.47908 -7.19558 10326 ft 264 kts 96°
2026-04-22 03:50 53.47790 -7.16504 10030 ft 261 kts 96°
2026-04-22 03:50 53.47674 -7.13475 9715 ft 259 kts 96°
2026-04-22 03:50 53.47558 -7.10464 9368 ft 257 kts 96°
2026-04-22 03:50 53.47254 -7.02671 8496 ft 253 kts 96°
2026-04-22 03:51 53.46798 -6.91003 7224 ft 248 kts 96°
2026-04-22 03:51 53.46448 -6.82051 6226 ft 243 kts 96°
2026-04-22 03:51 53.46398 -6.79248 5907 ft 239 kts 95°
2026-04-22 03:51 53.46339 -6.76483 5608 ft 236 kts 97°
2026-04-22 03:52 53.46221 -6.73741 5318 ft 234 kts 98°
2026-04-22 03:52 53.46082 -6.71069 5022 ft 226 kts 99°
2026-04-22 03:52 53.45944 -6.68545 4957 ft 213 kts 99°
2026-04-22 03:52 53.45810 -6.66132 4752 ft 207 kts 99°
2026-04-22 03:53 53.45679 -6.63756 4485 ft 202 kts 100°
2026-04-22 03:53 53.45558 -6.61565 4238 ft 196 kts 99°
2026-04-22 03:53 53.45434 -6.59294 3969 ft 186 kts 100°
2026-04-22 03:53 53.45318 -6.57163 3726 ft 180 kts 101°
2026-04-22 03:54 53.45205 -6.55110 3505 ft 175 kts 101°
2026-04-22 03:54 53.45094 -6.53097 3248 ft 171 kts 100°
2026-04-22 03:54 53.44987 -6.51162 3015 ft 161 kts 100°
2026-04-22 03:54 53.44886 -6.49346 2795 ft 154 kts 101°
2026-04-22 03:55 53.44786 -6.47542 2593 ft 157 kts 99°
2026-04-22 03:55 53.44686 -6.45723 2406 ft 155 kts 99°
2026-04-22 03:55 53.44590 -6.43972 2150 ft 144 kts 98°
2026-04-22 03:55 53.44500 -6.42363 1958 ft 136 kts 98°
2026-04-22 03:56 53.44413 -6.40777 1782 ft 137 kts 98°
2026-04-22 03:56 53.44326 -6.39175 1584 ft 138 kts 97°
2026-04-22 03:56 53.44238 -6.37569 1411 ft 138 kts 97°
2026-04-22 03:56 53.44153 -6.36002 1199 ft 133 kts 98°
2026-04-22 03:57 53.44067 -6.34474 1013 ft 133 kts 97°
2026-04-22 03:57 53.44006 -6.32891 835 ft 134 kts 93°
2026-04-22 03:57 53.43892 -6.31344 654 ft 133 kts 95°
2026-04-22 03:57 53.43820 -6.29842 460 ft 129 kts 96°
2026-04-22 03:58 53.43729 -6.28325 283 ft 134 kts 95°
2026-04-22 03:58 53.43648 -6.26840 224 ft 115 kts 95°
2026-04-22 03:58 53.43591 -6.25757 218 ft 71 kts 95°
2026-04-22 03:58 53.43532 -6.25234 221 ft 27 kts 121°
2026-04-22 03:59 53.43468 -6.25052 221 ft 10 kts 120°
2026-04-22 03:59 53.43442 -6.24988 225 ft 5 kts 140°
2026-04-22 03:59 53.43404 -6.24983 221 ft 7 kts 199°
2026-04-22 03:59 53.43384 -6.25062 226 ft 8 kts 268°
2026-04-22 04:00 53.43385 -6.25164 223 ft 9 kts 274°
2026-04-22 04:00 53.43392 -6.25274 219 ft 10 kts 275°
2026-04-22 04:00 53.43398 -6.25391 218 ft 10 kts 275°
2026-04-22 04:00 53.43405 -6.25514 215 ft 11 kts 275°
2026-04-22 04:01 53.43402 -6.25626 217 ft 9 kts 240°
2026-04-22 04:01 53.43340 -6.25637 221 ft 10 kts 161°
2026-04-22 04:01 53.43274 -6.25590 221 ft 13 kts 157°
2026-04-22 04:01 53.43164 -6.25511 219 ft 18 kts 156°
2026-04-22 04:02 53.43048 -6.25428 224 ft 18 kts 156°
2026-04-22 04:02 53.42945 -6.25352 221 ft 12 kts 155°
2026-04-22 04:02 53.42879 -6.25301 221 ft 10 kts 155°
2026-04-22 04:02 53.42815 -6.25251 220 ft 10 kts 154°
2026-04-22 04:03 53.42793 -6.25144 218 ft 10 kts 90°
2026-04-22 04:03 53.42770 -6.25035 221 ft 10 kts 139°
2026-04-22 04:03 53.42708 -6.24971 223 ft 11 kts 149°
2026-04-22 04:03 53.42646 -6.24905 221 ft 11 kts 148°
2026-04-22 04:04 53.42622 -6.24798 216 ft 10 kts 88°
2026-04-22 04:04 53.42623 -6.24720 216 ft 4 kts 89°
2026-04-22 04:04 53.42623 -6.24713 216 ft 0 kts 90°